STARLINK-1560, 46036

Orbit data source: Space-Track

STARLINK-1560, 46036 is a payload satellite owned by SpaceX/Seattle (US) in LEO that was launched on Fri, 07 Aug 2020 UTC via an FALCON 9 launch vehicle from the Air Force Eastern Test Range (AFETR). Payload-class satellites include a variety of spacecraft equipped with specific instruments for various scientific and technological missions. These include communications satellites like Starlink; space stations such as the ISS; scientific satellites like the Hubble; Earth observation satellites from companies like Planet Labs, Umbra, and HawkEye 360; GPS; miniature CubeSats for education and research; and military/defense satellites.

Loading next visibility...
Identifier
46036, 2020-055K
Orbit
LEO
Country
Flag of USUS
Related business
Manufacturer
SpaceX/Seattle
Mission
Operational Commercial Communications
Bus & Motor
STARLINK, Unknown motor
Mass
260 kg wet, ~248 kg dry
Launch date (UTC)
2020-08-07 (5 years ago)
Launch vehicle
FALCON 9
Launch site
Air Force Eastern Test Range (AFETR)
Object type
Payload
Rocket body
Debris
Shape & HBR
Box + 1 Pan, 10.1 m
Radar Cross Section
13.562 m², Large (>1 m²)

Expand to show TLE details & history
Last TLE update: 9 hours ago

TLE from 9 hours ago
0 STARLINK-1560
1 46036U 20055K   25291.02039130  .00002027  00000-0  15493-3 0  9994
2 46036  53.0547  47.0865 0001765  84.0956 276.0234 15.06396506287390
Epoch: 2025-10-18T00:29Z
TLE epoch observation values (Epoch: 2025-10-18T00:29:21.808Z)
Latitude
-0.00002°
Longitude
12.98821°
Altitude
547.973 km
Speed
7.589 km/s
True Right ascension
03h 08m 20s
True Declination
0° 00' 00"
Sunlit
Object was in full shadow at epoch
Visualization orbit readout
Latitude
Unknown
Longitude
Unknown
Altitude
Unknown
Speed
Unknown
Apparent Right ascension
Unknown
Apparent Declination
Unknown
Sunlit
N/A
Visualization observer readout
Local Sidereal Time
04:46:47
Azimuth
Unknown
Elevation
Unknown
Doppler factor
Unknown
Orbital elements
Apogee altitude
548.715 km
Perigee altitude
546.271 km
Semi-major axis
6,925.63 km
Eccentricity
0.00018
Inclination
53.0547°
RAAN
47.0865°
Arg. of periapsis
84.0956°
True anomaly
276.00329°
Mean anomaly
276.0234°
Eccentric anomaly
276.01334°
Mean motion
3.76577 °/min
Orbital period
95.6 mins
BSTAR
0.00015493
Loading maneuver chart data...
Computing Atmospheric mass density...
Loading historical data...
Loading historical data...
Loading historical data...
Loading historical data...
Loading historical data...
Loading historical data...
Loading historical data...

Documentation

Showing up to 5 results
|